Weather History for Saginaw, MI

Change the Weather History Date:

Monday, May 26, 2014

  Actual Average Record
Temperature  
Mean Temperature 73 °F 61 °F  
Max Temperature 85 °F 71 °F 85 °F (2014)
Min Temperature 60 °F 50 °F 41 °F (2002)
Degree Days  
Heating Degree Days 0    
Month to date heating degree days 213  
Since 1 July heating degree days 7573  
Cooling Degree Days 8    
Month to date cooling degree days 22  
Year to date cooling degree days 25  
Growing Degree Days 22 (Base 50)    
Moisture  
Dew Point 56 °F    
Average Humidity 55    
Maximum Humidity 72    
Minimum Humidity 37    
Precipitation  
Precipitation 0.00 in 0.10 in 0.49 in (2011)
Month to date precipitation 3.23 2.87  
Year to date precipitation 11.59 11.14  
Snow  
Snow 0.00 in - - ()
Month to date snowfall 0.0  
Since 1 July snowfall 60.3  
Snow Depth 0.00 in    
Sea Level Pressure  
Sea Level Pressure 29.98 in    
Wind  
Wind Speed 10 mph (SW)    
Max Wind Speed 22 mph    
Max Gust Speed 28 mph    
Visibility 10 miles    
Events      
T = Trace of Precipitation, MM = Missing Value Source: NWS Daily Summary

Daily Weather History Graph

Daily Weather History Graph

Search for Another Location

Airport:

Trip Planner

Search our weather history database for the weather conditions in past years. The results will help you decide how hot, cold, wet, or windy it might be!

Date:

Astronomy

May. 26, 2014 Rise Set
Actual Time 6:01 AM EDT 9:05 PM EDT
Civil Twilight 5:27 AM EDT 9:39 PM EDT
Nautical Twilight 4:43 AM EDT 10:23 PM EDT
Astronomical Twilight 3:51 AM EDT 11:16 PM EDT
Moon 4:47 AM EDT (5/26) 7:03 PM EDT (5/26)
Length of Visible Light 16h 12m
Length of Day
15h 03m
Waning Crescent, 5% of the Moon is Illuminated
May 26
Waning Crescent
May 28
New
Jun 5
First Quarter
Jun 13
Full
Jun 19
Last Quarter

Hourly Weather History & Observations

Time (EDT) Temp. Heat Index Dew Point Humidity Pressure Visibility Wind Dir Wind Speed Gust Speed Precip Events Conditions
12:53 AM 68.0 °F - 50.0 °F 52% 30.04 in 10.0 mi WSW 4.6 mph - N/A   Clear
1:53 AM 66.0 °F - 51.1 °F 59% 30.04 in 10.0 mi SSW 5.8 mph - N/A   Clear
2:53 AM 62.1 °F - 53.1 °F 72% 30.04 in 10.0 mi SW 5.8 mph - N/A   Clear
3:53 AM 62.1 °F - 52.0 °F 70% 30.04 in 10.0 mi SSW 5.8 mph - N/A   Clear
4:53 AM 61.0 °F - 52.0 °F 72% 30.04 in 10.0 mi SSW 5.8 mph - N/A   Clear
5:53 AM 61.0 °F - 52.0 °F 72% 30.04 in 10.0 mi SSW 6.9 mph - N/A   Clear
6:53 AM 62.1 °F - 52.0 °F 70% 30.04 in 10.0 mi SSW 8.1 mph - N/A   Clear
7:53 AM 64.9 °F - 54.0 °F 68% 30.04 in 10.0 mi SW 8.1 mph - N/A   Clear
8:53 AM 68.0 °F - 54.0 °F 61% 30.04 in 10.0 mi SW 9.2 mph - N/A   Clear
9:53 AM 73.9 °F - 57.9 °F 57% 30.03 in 10.0 mi WSW 11.5 mph - N/A   Clear
10:53 AM 79.0 °F - 59.0 °F 50% 30.02 in 10.0 mi WSW 11.5 mph - N/A   Clear
11:53 AM 82.0 °F 81.4 °F 55.0 °F 39% 30.01 in 10.0 mi WSW 15.0 mph - N/A   Clear
12:53 PM 82.0 °F 81.7 °F 57.0 °F 42% 30.01 in 10.0 mi WSW 16.1 mph - N/A   Mostly Cloudy
1:53 PM 82.9 °F 82.4 °F 57.0 °F 41% 29.99 in 10.0 mi WSW 17.3 mph 24.2 mph N/A   Clear
2:53 PM 82.9 °F 82.1 °F 55.9 °F 39% 29.97 in 10.0 mi SW 15.0 mph - N/A   Clear
3:53 PM 84.9 °F 83.9 °F 57.0 °F 38% 29.94 in 10.0 mi West 15.0 mph 24.2 mph N/A   Clear
4:53 PM 84.9 °F 83.6 °F 55.0 °F 36% 29.92 in 10.0 mi SW 16.1 mph 21.9 mph N/A   Clear
5:53 PM 84.9 °F 83.6 °F 55.0 °F 36% 29.90 in 10.0 mi SW 17.3 mph 23.0 mph N/A   Clear
6:53 PM 82.0 °F 82.0 °F 57.9 °F 44% 29.91 in 10.0 mi WSW 10.4 mph - N/A   Clear
7:53 PM 81.0 °F 81.6 °F 60.1 °F 49% 29.90 in 10.0 mi WSW 9.2 mph - N/A   Clear
8:53 PM 78.1 °F - 62.1 °F 58% 29.91 in 10.0 mi West 9.2 mph - N/A   Clear
9:53 PM 75.9 °F - 63.0 °F 64% 29.91 in 10.0 mi West 5.8 mph - N/A   Clear
10:53 PM 75.0 °F - 63.0 °F 66% 29.92 in 10.0 mi West 8.1 mph - N/A   Clear
11:53 PM 73.9 °F - 63.0 °F 68% 29.91 in 10.0 mi WSW 5.8 mph - N/A   Mostly Cloudy